TimePST,TemperatureF,Dew PointF,Humidity,Sea Level PressureIn,VisibilityMPH,Wind Direction,Wind SpeedMPH,Gust SpeedMPH,PrecipitationIn,Events,Conditions,WindDirDegrees,DateUTC
12:56 AM,-2.9,-7.1,82,30.64,10.0,ENE,6.9,-,N/A,,Clear,60,2013-01-22 08:56:00
1:56 AM,-4.0,-8.0,83,30.65,10.0,ENE,6.9,-,N/A,,Clear,60,2013-01-22 09:56:00
2:56 AM,-2.9,-7.1,82,30.64,10.0,Calm,Calm,-,N/A,,Clear,0,2013-01-22 10:56:00
3:56 AM,-4.0,-8.0,83,30.63,10.0,East,4.6,-,N/A,,Clear,80,2013-01-22 11:56:00
4:56 AM,-5.1,-9.0,83,30.65,10.0,East,4.6,-,N/A,,Clear,80,2013-01-22 12:56:00
5:56 AM,-7.1,-11.0,83,30.66,10.0,East,5.8,-,N/A,,Clear,80,2013-01-22 13:56:00
6:56 AM,-8.0,-11.9,83,30.66,10.0,ENE,5.8,-,N/A,,Clear,70,2013-01-22 14:56:00
7:56 AM,-7.1,-11.0,83,30.66,10.0,ENE,6.9,-,N/A,,Clear,60,2013-01-22 15:56:00
8:56 AM,-2.9,-5.1,90,30.69,10.0,Calm,Calm,-,N/A,,Clear,0,2013-01-22 16:56:00
9:56 AM,1.9,-4.0,76,30.69,10.0,ENE,5.8,-,N/A,,Clear,70,2013-01-22 17:56:00
10:56 AM,9.0,1.0,70,30.63,10.0,Variable,3.5,-,N/A,,Clear,0,2013-01-22 18:56:00
11:56 AM,12.9,5.0,71,30.58,10.0,East,4.6,-,N/A,,Clear,100,2013-01-22 19:56:00
12:56 PM,17.1,7.0,65,30.55,10.0,East,6.9,-,N/A,,Clear,80,2013-01-22 20:56:00
1:56 PM,19.9,10.0,65,30.52,10.0,East,4.6,-,N/A,,Clear,80,2013-01-22 21:56:00
2:56 PM,21.0,10.0,63,30.49,10.0,ENE,5.8,-,N/A,,Clear,60,2013-01-22 22:56:00
3:56 PM,21.9,10.9,63,30.49,10.0,ENE,3.5,-,N/A,,Clear,70,2013-01-22 23:56:00
4:56 PM,17.1,9.0,71,30.51,10.0,ENE,5.8,-,N/A,,Clear,60,2013-01-23 00:56:00
5:56 PM,15.1,7.0,70,30.55,10.0,Calm,Calm,-,N/A,,Clear,0,2013-01-23 01:56:00
6:56 PM,12.0,5.0,73,30.57,10.0,East,5.8,-,N/A,,Clear,90,2013-01-23 02:56:00
7:56 PM,9.0,3.9,80,30.56,10.0,East,6.9,-,N/A,,Clear,90,2013-01-23 03:56:00
8:56 PM,8.1,3.0,80,30.55,10.0,ENE,8.1,-,N/A,,Clear,70,2013-01-23 04:56:00
9:56 PM,5.0,1.0,84,30.55,10.0,ESE,5.8,-,N/A,,Clear,110,2013-01-23 05:56:00
10:56 PM,6.1,1.0,80,30.50,10.0,ENE,4.6,-,N/A,,Clear,70,2013-01-23 06:56:00
11:56 PM,5.0,-0.0,80,30.50,10.0,ENE,6.9,-,N/A,,Clear,60,2013-01-23 07:56:00